User: anonymous   Login
Location: Observatory
(49.4490°N, 2.6360°W)
Time: 19:22:12
(UTC+01:00)
Language:

NOAA 19 - Orbit

View from above orbital plane
View from above orbital plane
View from above satellite
View from above satellite

Ground track
Ground track

The orbit data is extracted from the following two-line orbital elements,

1 33591U 09005A   24147.13769013  .00000346  00000-0  20964-3 0  9990
2 33591  99.0482 202.7022 0013615 359.1312   0.9834 14.13012556788511
Epoch (UTC): 26 May 2024 03:18:16
Eccentricity: 0.0013615
inclination: 99.0482°
perigee height: 839 km
apogee height: 859 km
right ascension of ascending node: 202.7022°
argument of perigee: 359.1312°
revolutions per day: 14.13012556
mean anomaly at epoch: 0.9834°
orbit number at epoch: 78851

The dashed part of the orbit path shows where the satellite is in the earth's shadow,  

DLR